Weather History for KLGB - October, 2013

Change the Weather History Date:

Saturday, October 26, 2013

  Actual Average Record
Temperature  
Mean Temperature 66 °F 66 °F  
Max Temperature 75 °F 76 °F 93 °F (1983)
Min Temperature 57 °F 56 °F 47 °F (1970)
Degree Days  
Heating Degree Days 0 1  
Month to date heating degree days 11 10  
Since 1 July heating degree days 11 11  
Cooling Degree Days 1 2  
Month to date cooling degree days 92 94  
Year to date cooling degree days 1186 1093  
Growing Degree Days 16 (Base 50)    
Moisture  
Dew Point 55 °F    
Average Humidity 73    
Maximum Humidity 93    
Minimum Humidity 53    
Precipitation  
Precipitation 0.00 in 0.03 in 1.51 in (2004)
Month to date precipitation 0.09 0.49  
Year to date precipitation 3.03 9.17  
Since 1 July precipitation 0.16 0.73  
Sea Level Pressure  
Sea Level Pressure 30.05 in    
Wind  
Wind Speed 3 mph (NW)    
Max Wind Speed 13 mph    
Max Gust Speed 14 mph    
Visibility 3 miles    
Events Fog    
T = Trace of Precipitation, MM = Missing Value Source: NWS Daily Summary

Daily Weather History Graph

Daily Weather History Graph

Search for Another Location

Airport or City:

Trip Planner

Search our weather history database for the weather conditions in past years. The results will help you decide how hot, cold, wet, or windy it might be!

Date:

Astronomy

Oct. 26, 2013 Rise Set
Actual Time 7:06 AM PDT 6:05 PM PDT
Civil Twilight 6:41 AM PDT 6:31 PM PDT
Nautical Twilight 6:12 AM PDT 7:00 PM PDT
Astronomical Twilight 5:42 AM PDT 7:29 PM PDT
Moon No Moon Rise 1:23 PM PDT (10/26)
Length of Visible Light 11h 49m
Length of Day
10h 58m
Waning Gibbous, 52% of the Moon is Illuminated
Oct 26
Waning Gibbous
Oct 26
Last Quarter
Nov 3
New
Nov 9
First Quarter
Nov 17
Full

Hourly Weather History & Observations

Time (PDT) Temp. Dew Point Humidity Pressure Visibility Wind Dir Wind Speed Gust Speed Precip Events Conditions
12:53 AM 60.1 °F 54.0 °F 80% 30.07 in 5.0 mi Calm Calm - N/A   Haze
1:53 AM 59.0 °F 54.0 °F 83% 30.07 in 5.0 mi Calm Calm - N/A   Haze
2:06 AM 59.0 °F 53.6 °F 82% 30.08 in 5.0 mi Calm Calm - N/A   Haze
2:41 AM 57.2 °F 53.6 °F 88% 30.07 in 5.0 mi NNW 3.5 mph - N/A   Haze
2:53 AM 57.9 °F 53.1 °F 84% 30.07 in 4.0 mi NNW 4.6 mph - N/A   Haze
3:01 AM 57.2 °F 53.6 °F 88% 30.07 in 2.0 mi NW 4.6 mph - N/A   Overcast
3:03 AM 57.2 °F 55.4 °F 94% 30.07 in 1.0 mi NW 5.8 mph - N/A   Overcast
3:05 AM 57.2 °F 55.4 °F 94% 30.07 in 0.8 mi NW 5.8 mph - N/A   Overcast
3:16 AM 57.2 °F 55.4 °F 94% 30.07 in 0.2 mi North 3.5 mph - N/A Fog Fog
3:29 AM 57.2 °F 55.4 °F 94% 30.07 in 0.2 mi Calm Calm - N/A Fog Fog
3:53 AM 57.9 °F 55.9 °F 93% 30.06 in 0.2 mi North 3.5 mph - N/A Fog Fog
4:49 AM 57.2 °F 55.4 °F 94% 30.06 in 0.5 mi West 4.6 mph - N/A Fog Fog
4:53 AM 57.9 °F 55.0 °F 90% 30.06 in 0.2 mi Calm Calm - N/A Fog Fog
5:06 AM 57.2 °F 55.4 °F 94% 30.06 in 0.5 mi Calm Calm - N/A Fog Fog
5:14 AM 57.2 °F 55.4 °F 94% 30.06 in 0.2 mi Calm Calm - N/A Fog Fog
5:23 AM 57.2 °F 55.4 °F 94% 30.06 in 0.2 mi Calm Calm - N/A Fog Fog
5:33 AM 57.2 °F 55.4 °F 94% 30.07 in 0.2 mi Calm Calm - N/A Fog Fog
5:53 AM 57.9 °F 55.9 °F 93% 30.07 in 0.2 mi Calm Calm - N/A Fog Fog
6:53 AM 57.9 °F 55.0 °F 90% 30.07 in 0.2 mi Calm Calm - N/A Fog Fog
7:11 AM 57.2 °F 55.4 °F 94% 30.07 in 1.0 mi NNW 3.5 mph - N/A   Mist
7:20 AM 57.2 °F 55.4 °F 94% 30.08 in 1.0 mi Calm Calm - N/A   Overcast
7:39 AM 57.2 °F 55.4 °F 94% 30.08 in 2.0 mi Calm Calm - N/A   Overcast
7:49 AM 57.2 °F 55.4 °F 94% 30.08 in 1.0 mi Calm Calm - N/A   Overcast
7:53 AM 57.9 °F 55.0 °F 90% 30.08 in 1.0 mi Calm Calm - N/A   Overcast
8:51 AM 59.0 °F 53.6 °F 82% 30.09 in 1.0 mi Calm Calm - N/A   Haze
8:53 AM 59.0 °F 54.0 °F 83% 30.09 in 1.0 mi ENE 3.5 mph - N/A   Haze
9:00 AM 60.8 °F 53.6 °F 77% 30.09 in 1.8 mi Calm Calm - N/A   Haze
9:13 AM 60.8 °F 53.6 °F 77% 30.09 in 2.0 mi Calm Calm - N/A   Haze
9:53 AM 61.0 °F 54.0 °F 78% 30.09 in 2.0 mi NW 4.6 mph - N/A   Haze
10:00 AM 60.8 °F 55.4 °F 82% 30.09 in 1.8 mi Calm Calm - N/A   Haze
10:17 AM 62.6 °F 55.4 °F 77% 30.08 in 2.0 mi Calm Calm - N/A   Haze
10:53 AM 64.9 °F 55.0 °F 70% 30.07 in 2.5 mi Calm Calm - N/A   Haze
11:03 AM 66.2 °F 55.4 °F 68% 30.07 in 2.5 mi Calm Calm - N/A   Haze
11:53 AM 69.1 °F 55.0 °F 61% 30.06 in 2.5 mi Calm Calm - N/A   Haze
12:07 PM 71.6 °F 55.4 °F 57% 30.05 in 3.0 mi Calm Calm - N/A   Haze
12:53 PM 73.9 °F 55.0 °F 52% 30.03 in 3.0 mi NNW 4.6 mph - N/A   Haze
1:53 PM 71.1 °F 57.0 °F 61% 30.00 in 3.0 mi South 5.8 mph - N/A   Haze
2:53 PM 71.1 °F 54.0 °F 55% 29.99 in 4.0 mi NW 8.1 mph - N/A   Haze
3:53 PM 68.0 °F 55.9 °F 65% 29.98 in 3.0 mi WNW 10.4 mph - N/A   Haze
4:53 PM 66.9 °F 55.9 °F 68% 29.97 in 5.0 mi WNW 10.4 mph - N/A   Haze
5:53 PM 64.9 °F 57.0 °F 75% 29.96 in 7.0 mi NW 5.8 mph - N/A   Clear
6:53 PM 64.9 °F 55.9 °F 73% 29.96 in 8.0 mi NNW 5.8 mph - N/A   Clear
7:53 PM 64.0 °F 55.9 °F 75% 29.97 in 7.0 mi Calm Calm - N/A   Clear
8:53 PM 63.0 °F 55.9 °F 78% 29.98 in 7.0 mi Calm Calm - N/A   Clear
9:53 PM 61.0 °F 54.0 °F 78% 29.99 in 5.0 mi Calm Calm - N/A   Haze
10:53 PM 61.0 °F 54.0 °F 78% 29.99 in 6.0 mi Calm Calm - N/A   Haze
11:53 PM 57.9 °F 54.0 °F 87% 29.98 in 2.5 mi Calm Calm - N/A   Clear